TRA535 LYTV-LICJ

Flight info

Callsign TRA535
Flight time 1h 10m
Altitude 34000
Route LYTV KOFER DCT SOBRI DCT PELEN DCT LAVRU LAVR2B LICJ
Aircraft B739/M-V/N

Departure

Time 2026-04-27 12:28
Airport Tivat Airport (LYTV)

Arrival

Time 2026-04-27 13:39
Airport Falcone–Borsellino Airport (LICJ)
Time Latitude Longitude Altitude Speed Heading
2026-04-27 12:17 42.41253 18.71653 7 ft 0 kts 175°
2026-04-27 12:23 42.41248 18.71650 6 ft 2 kts 205°
2026-04-27 12:24 42.41243 18.71597 4 ft 8 kts 296°
2026-04-27 12:24 42.41264 18.71566 3 ft 3 kts 317°
2026-04-27 12:24 42.41292 18.71535 2 ft 8 kts 324°
2026-04-27 12:24 42.41319 18.71508 2 ft 0 kts 319°
2026-04-27 12:25 42.41320 18.71507 2 ft 2 kts 319°
2026-04-27 12:25 42.41354 18.71442 3 ft 6 kts 279°
2026-04-27 12:25 42.41354 18.71433 2 ft 0 kts 270°
2026-04-27 12:26 42.41354 18.71432 2 ft 0 kts 270°
2026-04-27 12:26 42.41335 18.71384 2 ft 9 kts 231°
2026-04-27 12:26 42.41287 18.71365 2 ft 8 kts 147°
2026-04-27 12:27 42.41278 18.71375 1 ft 0 kts 141°
2026-04-27 12:28 42.41144 18.71530 3 ft 64 kts 139°
2026-04-27 12:28 42.40603 18.72164 0 ft 139 kts 139°
2026-04-27 12:28 42.39728 18.73192 115 ft 188 kts 140°
2026-04-27 12:28 42.38702 18.74346 964 ft 193 kts 141°
2026-04-27 12:29 42.37556 18.75204 1972 ft 191 kts 167°
2026-04-27 12:29 42.36121 18.75294 2367 ft 222 kts 178°
2026-04-27 12:29 42.34598 18.75721 2892 ft 234 kts 162°
2026-04-27 12:29 42.32971 18.76493 3139 ft 259 kts 161°
2026-04-27 12:30 42.31284 18.77258 4068 ft 250 kts 162°
2026-04-27 12:30 42.29663 18.77959 5124 ft 240 kts 162°
2026-04-27 12:30 42.28060 18.78641 5893 ft 244 kts 162°
2026-04-27 12:30 42.26405 18.79238 6568 ft 249 kts 177°
2026-04-27 12:31 42.24653 18.78896 6915 ft 267 kts 197°
2026-04-27 12:31 42.22816 18.78140 7308 ft 282 kts 197°
2026-04-27 12:31 42.20920 18.77366 7971 ft 286 kts 197°
2026-04-27 12:31 42.19032 18.76613 8711 ft 288 kts 196°
2026-04-27 12:32 42.17095 18.75852 9456 ft 291 kts 196°
2026-04-27 12:32 42.15142 18.75089 10171 ft 294 kts 196°
2026-04-27 12:32 42.13169 18.74324 10832 ft 296 kts 196°
2026-04-27 12:32 42.11179 18.73554 11501 ft 299 kts 196°
2026-04-27 12:33 42.09171 18.72777 12175 ft 301 kts 196°
2026-04-27 12:33 42.07148 18.71993 12845 ft 304 kts 197°
2026-04-27 12:33 42.05103 18.71201 13497 ft 307 kts 197°
2026-04-27 12:33 42.03040 18.70402 14128 ft 310 kts 197°
2026-04-27 12:34 42.00985 18.69606 14710 ft 312 kts 197°
2026-04-27 12:34 41.98889 18.68795 15323 ft 314 kts 196°
2026-04-27 12:34 41.96779 18.67981 15908 ft 317 kts 196°
2026-04-27 12:34 41.94648 18.67160 16475 ft 320 kts 196°
2026-04-27 12:35 41.92568 18.66075 17013 ft 324 kts 213°
2026-04-27 12:35 41.90795 18.64116 17194 ft 339 kts 223°
2026-04-27 12:35 41.89061 18.61859 17339 ft 356 kts 225°
2026-04-27 12:35 41.87272 18.59458 17467 ft 372 kts 225°
2026-04-27 12:36 41.85435 18.56981 17586 ft 387 kts 225°
2026-04-27 12:36 41.83504 18.54388 17822 ft 398 kts 225°
2026-04-27 12:36 41.81533 18.51757 18291 ft 402 kts 225°
2026-04-27 12:36 41.79545 18.49119 18784 ft 403 kts 225°
2026-04-27 12:37 41.77541 18.46473 19274 ft 405 kts 225°
2026-04-27 12:37 41.75525 18.43819 19743 ft 407 kts 225°
2026-04-27 12:37 41.73495 18.41153 20195 ft 410 kts 225°
2026-04-27 12:37 41.71452 18.38475 20658 ft 412 kts 225°
2026-04-27 12:38 41.69397 18.35784 21113 ft 415 kts 225°
2026-04-27 12:38 41.67326 18.33076 21560 ft 417 kts 225°
2026-04-27 12:38 41.65273 18.30392 21997 ft 420 kts 225°
2026-04-27 12:38 41.63180 18.27659 22430 ft 422 kts 225°
2026-04-27 12:39 41.61072 18.24910 22848 ft 425 kts 226°
2026-04-27 12:39 41.58951 18.22146 23278 ft 427 kts 226°
2026-04-27 12:39 41.56819 18.19370 23686 ft 429 kts 226°
2026-04-27 12:39 41.54675 18.16581 24042 ft 432 kts 226°
2026-04-27 12:40 41.52520 18.13781 24416 ft 433 kts 226°
2026-04-27 12:40 41.50357 18.10974 24793 ft 434 kts 226°
2026-04-27 12:40 41.48215 18.08197 25144 ft 436 kts 226°
2026-04-27 12:40 41.46038 18.05375 25485 ft 438 kts 226°
2026-04-27 12:41 41.43846 18.02539 25825 ft 440 kts 226°
2026-04-27 12:41 41.41647 17.99695 26160 ft 441 kts 226°
2026-04-27 12:41 41.39439 17.96843 26493 ft 443 kts 226°
2026-04-27 12:41 41.37220 17.93980 26820 ft 445 kts 226°
2026-04-27 12:42 41.34994 17.91110 27139 ft 447 kts 226°
2026-04-27 12:42 41.32786 17.88266 27448 ft 449 kts 226°
2026-04-27 12:42 41.30540 17.85377 27753 ft 450 kts 226°
2026-04-27 12:42 41.28280 17.82472 28062 ft 452 kts 226°
2026-04-27 12:43 41.26013 17.79562 28358 ft 454 kts 226°
2026-04-27 12:43 41.23737 17.76643 28647 ft 456 kts 226°
2026-04-27 12:43 41.21454 17.73718 28982 ft 456 kts 226°
2026-04-27 12:43 41.19172 17.70797 29439 ft 454 kts 226°
2026-04-27 12:44 41.16909 17.67905 29926 ft 451 kts 226°
2026-04-27 12:44 41.14645 17.65015 30339 ft 450 kts 226°
2026-04-27 12:44 41.12426 17.62182 30647 ft 450 kts 226°
2026-04-27 12:44 41.10170 17.59306 30957 ft 449 kts 226°
2026-04-27 12:45 41.07920 17.56439 31287 ft 448 kts 226°
2026-04-27 12:45 41.05677 17.53586 31634 ft 446 kts 226°
2026-04-27 12:45 41.03437 17.50738 31945 ft 446 kts 226°
2026-04-27 12:45 41.01203 17.47901 32243 ft 445 kts 226°
2026-04-27 12:46 40.98973 17.45073 32538 ft 444 kts 226°
2026-04-27 12:46 40.96742 17.42245 32839 ft 443 kts 226°
2026-04-27 12:46 40.94522 17.39433 33142 ft 442 kts 226°
2026-04-27 12:46 40.92301 17.36625 33424 ft 441 kts 226°
2026-04-27 12:47 40.90113 17.33860 33681 ft 441 kts 226°
2026-04-27 12:47 40.87902 17.31068 33964 ft 440 kts 226°
2026-04-27 12:47 40.85684 17.28270 34128 ft 441 kts 226°
2026-04-27 12:48 40.81236 17.22668 34116 ft 441 kts 226°
2026-04-27 12:48 40.76805 17.17100 34124 ft 439 kts 226°
2026-04-27 12:49 40.72420 17.11601 34126 ft 437 kts 226°
2026-04-27 12:49 40.68022 17.06093 34129 ft 436 kts 226°
2026-04-27 12:50 40.63622 17.00595 34125 ft 436 kts 226°
2026-04-27 12:50 40.59211 16.95093 34124 ft 437 kts 226°
2026-04-27 12:51 40.54789 16.89588 34117 ft 439 kts 225°
2026-04-27 12:51 40.50372 16.84100 34189 ft 441 kts 225°
2026-04-27 12:52 40.45906 16.78562 34220 ft 442 kts 225°
2026-04-27 12:52 40.41421 16.73011 34235 ft 444 kts 225°
2026-04-27 12:53 40.34668 16.64673 34241 ft 445 kts 225°
2026-04-27 12:53 40.30186 16.59153 34227 ft 445 kts 225°
2026-04-27 12:54 40.25672 16.53603 34199 ft 445 kts 225°
2026-04-27 12:54 40.21151 16.48057 34168 ft 445 kts 225°
2026-04-27 12:55 40.16635 16.42526 34142 ft 444 kts 225°
2026-04-27 12:55 40.12154 16.37049 34117 ft 444 kts 225°
2026-04-27 12:56 40.07647 16.31550 34112 ft 443 kts 225°
2026-04-27 12:56 40.03135 16.26056 34114 ft 443 kts 225°
2026-04-27 12:57 39.98623 16.20571 34109 ft 443 kts 225°
2026-04-27 12:57 39.94141 16.15134 34105 ft 444 kts 225°
2026-04-27 12:58 39.89611 16.09650 34112 ft 444 kts 225°
2026-04-27 12:58 39.85088 16.04183 34122 ft 444 kts 224°
2026-04-27 12:59 39.80562 15.98723 34121 ft 444 kts 224°
2026-04-27 12:59 39.76059 15.93301 34131 ft 444 kts 224°
2026-04-27 13:00 39.71527 15.87854 34123 ft 444 kts 224°
2026-04-27 13:00 39.66992 15.82414 34128 ft 444 kts 224°
2026-04-27 13:01 39.62458 15.76985 34129 ft 443 kts 224°
2026-04-27 13:01 39.57926 15.71569 34128 ft 443 kts 224°
2026-04-27 13:02 39.53432 15.66209 34133 ft 442 kts 224°
2026-04-27 13:02 39.48906 15.60819 34132 ft 442 kts 224°
2026-04-27 13:03 39.44380 15.55440 34137 ft 441 kts 224°
2026-04-27 13:03 39.39857 15.50074 34130 ft 441 kts 224°
2026-04-27 13:04 39.35336 15.44720 34134 ft 442 kts 224°
2026-04-27 13:04 39.30828 15.39390 34133 ft 442 kts 224°
2026-04-27 13:05 39.26289 15.34035 34134 ft 442 kts 224°
2026-04-27 13:05 39.21749 15.28685 34133 ft 442 kts 224°
2026-04-27 13:06 39.17203 15.23338 34135 ft 442 kts 224°
2026-04-27 13:06 39.12685 15.18030 34135 ft 443 kts 224°
2026-04-27 13:07 39.08111 15.12712 34135 ft 443 kts 221°
2026-04-27 13:07 39.03139 15.08002 34137 ft 444 kts 216°
2026-04-27 13:08 38.98045 15.03487 34130 ft 445 kts 216°
2026-04-27 13:08 38.92970 14.98945 34135 ft 444 kts 217°
2026-04-27 13:09 38.87960 14.94411 34094 ft 439 kts 217°
2026-04-27 13:09 38.85486 14.92167 33628 ft 434 kts 217°
2026-04-27 13:09 38.83018 14.89928 32804 ft 435 kts 217°
2026-04-27 13:10 38.80523 14.87665 31683 ft 444 kts 217°
2026-04-27 13:10 38.77980 14.85359 30574 ft 453 kts 217°
2026-04-27 13:10 38.75382 14.83008 29339 ft 461 kts 217°
2026-04-27 13:10 38.72744 14.80624 28117 ft 467 kts 217°
2026-04-27 13:11 38.70077 14.78217 26928 ft 472 kts 217°
2026-04-27 13:11 38.67415 14.75818 25778 ft 476 kts 216°
2026-04-27 13:11 38.64704 14.73376 24639 ft 479 kts 216°
2026-04-27 13:11 38.61969 14.70915 23596 ft 481 kts 216°
2026-04-27 13:12 38.59256 14.68476 23058 ft 469 kts 216°
2026-04-27 13:12 38.56634 14.66122 22584 ft 456 kts 216°
2026-04-27 13:12 38.54056 14.63808 21793 ft 451 kts 216°
2026-04-27 13:12 38.51493 14.61507 20940 ft 449 kts 216°
2026-04-27 13:13 38.48945 14.59221 20166 ft 446 kts 216°
2026-04-27 13:13 38.46421 14.56959 19463 ft 441 kts 216°
2026-04-27 13:13 38.43956 14.54749 18795 ft 437 kts 216°
2026-04-27 13:13 38.41481 14.52533 18052 ft 433 kts 216°
2026-04-27 13:14 38.39026 14.50341 17322 ft 428 kts 216°
2026-04-27 13:14 38.36609 14.48158 16653 ft 422 kts 219°
2026-04-27 13:14 38.34644 14.45445 15948 ft 416 kts 238°
2026-04-27 13:14 38.33433 14.42156 15322 ft 408 kts 254°
2026-04-27 13:15 38.32957 14.38625 14698 ft 402 kts 265°
2026-04-27 13:15 38.32741 14.35096 14066 ft 398 kts 266°
2026-04-27 13:15 38.32553 14.31592 13359 ft 395 kts 266°
2026-04-27 13:15 38.32371 14.28165 12671 ft 391 kts 266°
2026-04-27 13:16 38.32182 14.24724 11992 ft 388 kts 266°
2026-04-27 13:16 38.31985 14.21316 11336 ft 385 kts 265°
2026-04-27 13:16 38.31782 14.17930 10694 ft 382 kts 265°
2026-04-27 13:16 38.31575 14.14568 10365 ft 381 kts 265°
2026-04-27 13:17 38.31365 14.11211 10237 ft 380 kts 265°
2026-04-27 13:17 38.31153 14.07858 10161 ft 380 kts 265°
2026-04-27 13:17 38.30940 14.04509 10139 ft 379 kts 265°
2026-04-27 13:17 38.30729 14.01205 10131 ft 379 kts 265°
2026-04-27 13:18 38.30514 13.97856 10126 ft 380 kts 265°
2026-04-27 13:18 38.30298 13.94507 10127 ft 380 kts 265°
2026-04-27 13:18 38.30081 13.91158 10132 ft 380 kts 265°
2026-04-27 13:18 38.29863 13.87805 10133 ft 380 kts 265°
2026-04-27 13:19 38.29645 13.84462 10123 ft 373 kts 265°
2026-04-27 13:19 38.29435 13.81252 10114 ft 355 kts 265°
2026-04-27 13:19 38.29235 13.78209 10114 ft 336 kts 265°
2026-04-27 13:19 38.29045 13.75334 10109 ft 318 kts 265°
2026-04-27 13:20 38.28867 13.72626 10113 ft 302 kts 265°
2026-04-27 13:20 38.28694 13.70026 10115 ft 288 kts 265°
2026-04-27 13:20 38.28526 13.67503 10107 ft 285 kts 265°
2026-04-27 13:20 38.28360 13.65011 9934 ft 281 kts 265°
2026-04-27 13:21 38.28194 13.62538 9530 ft 281 kts 265°
2026-04-27 13:21 38.28027 13.60056 9121 ft 282 kts 265°
2026-04-27 13:21 38.27860 13.57581 8769 ft 281 kts 264°
2026-04-27 13:21 38.27693 13.55115 8448 ft 279 kts 264°
2026-04-27 13:22 38.27528 13.52698 8113 ft 277 kts 264°
2026-04-27 13:22 38.27362 13.50259 7773 ft 276 kts 264°
2026-04-27 13:22 38.27197 13.47829 7432 ft 275 kts 264°
2026-04-27 13:22 38.27032 13.45412 7114 ft 274 kts 264°
2026-04-27 13:23 38.26867 13.43009 6800 ft 272 kts 264°
2026-04-27 13:23 38.26701 13.40606 6450 ft 272 kts 264°
2026-04-27 13:23 38.26534 13.38209 6140 ft 270 kts 264°
2026-04-27 13:23 38.26363 13.35839 5814 ft 269 kts 262°
2026-04-27 13:24 38.25882 13.33559 5477 ft 267 kts 247°
2026-04-27 13:24 38.25149 13.31402 5206 ft 264 kts 245°
2026-04-27 13:24 38.24394 13.29262 5146 ft 267 kts 245°
2026-04-27 13:24 38.23969 13.27016 5098 ft 267 kts 271°
2026-04-27 13:25 38.24468 13.24769 5112 ft 268 kts 300°
2026-04-27 13:25 38.25751 13.23047 5112 ft 273 kts 328°
2026-04-27 13:25 38.27571 13.22433 5110 ft 275 kts
2026-04-27 13:25 38.29416 13.23046 5121 ft 277 kts 25°
2026-04-27 13:26 38.31060 13.24341 5120 ft 279 kts 37°
2026-04-27 13:26 38.32559 13.25916 5117 ft 280 kts 41°
2026-04-27 13:26 38.33984 13.27561 5108 ft 281 kts 42°
2026-04-27 13:26 38.35523 13.29056 5098 ft 279 kts 21°
2026-04-27 13:27 38.37405 13.29306 5125 ft 273 kts 345°
2026-04-27 13:27 38.39052 13.28208 5136 ft 268 kts 314°
2026-04-27 13:27 38.40049 13.26239 5121 ft 266 kts 285°
2026-04-27 13:27 38.40149 13.23927 5119 ft 264 kts 256°
2026-04-27 13:28 38.39346 13.21856 5112 ft 263 kts 229°
2026-04-27 13:28 38.37893 13.20483 4955 ft 261 kts 205°
2026-04-27 13:28 38.36233 13.19551 4598 ft 262 kts 203°
2026-04-27 13:28 38.34549 13.18637 4209 ft 264 kts 203°
2026-04-27 13:29 38.32892 13.17729 3886 ft 263 kts 204°
2026-04-27 13:29 38.31218 13.16803 3559 ft 262 kts 204°
2026-04-27 13:29 38.29550 13.15865 3225 ft 262 kts 204°
2026-04-27 13:29 38.27887 13.14927 3140 ft 263 kts 204°
2026-04-27 13:30 38.26213 13.13982 3107 ft 263 kts 204°
2026-04-27 13:30 38.24545 13.13043 3099 ft 261 kts 204°
2026-04-27 13:30 38.22889 13.12106 3097 ft 261 kts 204°
2026-04-27 13:30 38.21791 13.11486 3098 ft 261 kts 204°
2026-04-27 13:31 38.19633 13.10090 3089 ft 261 kts 220°
2026-04-27 13:31 38.18802 13.09000 3036 ft 258 kts 231°
2026-04-27 13:31 38.17364 13.06628 2641 ft 257 kts 233°
2026-04-27 13:31 38.16384 13.04723 2206 ft 259 kts 251°
2026-04-27 13:32 38.16289 13.02466 2142 ft 261 kts 281°
2026-04-27 13:32 38.16688 13.00205 2108 ft 262 kts 283°
2026-04-27 13:32 38.16904 12.97933 2099 ft 258 kts 267°
2026-04-27 13:32 38.16819 12.96437 2106 ft 254 kts 264°
2026-04-27 13:33 38.16643 12.94264 2091 ft 240 kts 264°
2026-04-27 13:33 38.16452 12.92248 2097 ft 217 kts 257°
2026-04-27 13:33 38.15905 12.90595 2093 ft 191 kts 235°
2026-04-27 13:33 38.14678 12.89276 2103 ft 170 kts 202°
2026-04-27 13:34 38.13538 12.89006 2149 ft 166 kts 177°
2026-04-27 13:34 38.12760 12.89193 2126 ft 170 kts 160°
2026-04-27 13:34 38.11771 12.89981 2116 ft 168 kts 134°
2026-04-27 13:34 38.11159 12.91204 2100 ft 167 kts 108°
2026-04-27 13:35 38.11023 12.92650 2105 ft 166 kts 82°
2026-04-27 13:35 38.11397 12.94014 2101 ft 164 kts 56°
2026-04-27 13:35 38.12091 12.95164 2114 ft 165 kts 50°
2026-04-27 13:35 38.12805 12.96315 2115 ft 167 kts 50°
2026-04-27 13:36 38.13522 12.97477 2111 ft 167 kts 51°
2026-04-27 13:36 38.14163 12.98707 1914 ft 168 kts 62°
2026-04-27 13:36 38.14626 13.00050 1832 ft 161 kts 67°
2026-04-27 13:36 38.15016 13.01334 1604 ft 154 kts 67°
2026-04-27 13:37 38.15399 13.02612 1289 ft 159 kts 67°
2026-04-27 13:37 38.15849 13.03850 1005 ft 150 kts 63°
2026-04-27 13:37 38.16250 13.05091 812 ft 155 kts 67°
2026-04-27 13:37 38.16645 13.06311 628 ft 143 kts 66°
2026-04-27 13:38 38.17028 13.07427 387 ft 133 kts 66°
2026-04-27 13:38 38.17374 13.08484 132 ft 128 kts 64°
2026-04-27 13:38 38.17707 13.09467 49 ft 108 kts 67°
2026-04-27 13:38 38.17944 13.10176 52 ft 66 kts 66°
2026-04-27 13:39 38.18067 13.10541 50 ft 24 kts 66°
2026-04-27 13:39 38.18110 13.10668 51 ft 18 kts 66°
2026-04-27 13:39 38.18161 13.10715 52 ft 7 kts 320°
2026-04-27 13:39 38.18182 13.10588 52 ft 16 kts 277°
2026-04-27 13:40 38.18194 13.10464 52 ft 13 kts 275°
2026-04-27 13:40 38.18241 13.10374 52 ft 11 kts 334°
2026-04-27 13:40 38.18298 13.10336 52 ft 11 kts 332°
2026-04-27 13:40 38.18367 13.10297 52 ft 10 kts 343°
2026-04-27 13:41 38.18417 13.10346 52 ft 14 kts 64°
2026-04-27 13:41 38.18446 13.10430 52 ft 10 kts 71°
2026-04-27 13:41 38.18436 13.10509 52 ft 9 kts 75°
2026-04-27 13:41 38.18459 13.10577 52 ft 5 kts 48°
2026-04-27 13:42 38.18491 13.10579 52 ft 5 kts 346°
2026-04-27 13:42 38.18525 13.10563 52 ft 4 kts 339°
2026-04-27 13:42 38.18529 13.10561 52 ft 0 kts 338°